Date,TemperatureHighF,TemperatureAvgF,TemperatureLowF,DewpointHighF,DewpointAvgF,DewpointLowF,HumidityHigh,HumidityAvg,HumidityLow,PressureMaxIn,PressureMinIn,WindSpeedMaxMPH,WindSpeedAvgMPH,GustSpeedMaxMPH,PrecipitationSumIn
2013-1-1,35,27,18,32,23,13,91,86,78,30.20,29.99,0,-999,0,0.00
2013-1-2,37,25,15,20,14,10,82,66,35,30.20,30.10,0,-999,0,0.00
2013-1-3,42,30,22,26,21,17,84,69,45,30.36,30.18,0,-999,0,0.00
2013-1-4,46,34,22,24,21,17,84,61,36,30.40,30.26,0,-999,0,0.00
2013-1-5,42,37,32,31,26,20,78,64,55,30.27,30.11,0,-999,0,0.00
2013-1-6,40,32,26,28,21,16,82,64,41,30.31,30.14,0,-999,0,0.00
2013-1-7,53,38,29,25,22,17,69,53,30,30.29,30.07,0,-999,0,0.00
2013-1-8,56,43,32,45,29,22,90,60,41,30.17,30.01,0,-999,0,0.00
2013-1-9,55,49,43,46,40,31,91,74,51,30.35,30.16,0,-999,0,0.00
2013-1-10,52,48,42,49,43,31,90,84,48,30.27,29.80,0,-999,0,0.00
2013-1-11,65,55,46,46,43,40,85,65,41,29.82,29.69,0,-999,0,0.00
2013-1-12,56,40,28,47,31,23,87,72,43,29.94,29.76,0,-999,0,0.00
2013-1-13,27,22,16,24,16,10,87,80,76,30.29,29.90,0,-999,0,0.00
2013-1-14,27,18,13,19,12,8,82,76,65,30.42,30.28,0,-999,0,0.00
2013-1-15,29,23,17,21,17,12,82,78,66,30.30,30.09,0,-999,0,0.00
2013-1-16,41,28,16,23,17,10,82,65,42,30.11,30.03,0,-999,0,0.00
2013-1-17,43,35,29,30,24,18,86,66,49,30.42,30.09,0,-999,0,0.00
2013-1-18,57,42,30,28,24,21,72,51,26,30.44,30.13,0,-999,0,0.00
2013-1-19,63,50,44,34,31,24,62,47,33,30.18,30.00,0,-999,0,0.00
2013-1-20,51,39,27,32,21,14,75,51,27,30.25,30.13,0,-999,0,0.00
2013-1-21,33,24,18,15,12,9,69,58,40,30.34,30.24,0,-999,0,0.00
2013-1-22,34,26,19,16,13,11,72,58,46,30.30,30.17,0,-999,0,0.00
2013-1-23,58,38,25,38,26,14,75,64,45,30.25,30.10,0,-999,0,0.00
2013-1-24,35,30,24,22,13,9,64,50,37,30.34,30.08,0,-999,0,0.00
2013-1-25,48,36,27,27,23,15,82,60,37,30.20,30.05,0,-999,0,0.00
2013-1-26,58,45,32,24,22,19,67,41,24,30.25,30.11,0,-999,0,0.00
2013-1-27,46,43,41,34,30,23,73,61,40,30.12,30.02,0,-999,0,0.00
2013-1-28,73,68,65,59,57,56,77,68,56,29.92,29.78,0,-999,0,0.00
2013-1-29,69,60,43,60,54,40,91,81,69,29.79,29.41,0,-999,0,0.00
2013-1-30,44,32,26,41,26,17,91,78,66,29.95,29.41,0,-999,0,0.00
2013-1-31,40,26,13,26,16,0,83,63,52,30.39,29.91,0,-999,0,0.00